EHI
0 0 0 0 1 1 0 0 0 0 1 1 1 0 0 0 0 0 0 0 0 0 0 0 0 0 0 0 0 0 0 0 0 0 0 0 0 0 0 0 0 0 0 0
0 0 0 0 1 1 0 0 0 0 0 0 0 0 0 0 0 0 0 0 0 0 0 0 0 0 0 0 0 0 0 0 0 0 0 0 0 0 0 0 0 0 0 0
0 0 0 0 1 1 0 0 0 0 0 0 0 0 0 0 0 0 0 0 0 0 0 0 0 0 0 0 0 0 0 0 0 0 0 0 0 0 0 0 0 0 0 0
0 0 0 0 0 0 0 0 0 0 0 0 0 0 0 0 0 0 0 0 0 0 0 0 0 0 0 0 0 0 0 0 0 0 0 0 0 0 0 0 0 0 0 0
0 0 0 0 0 0 0 0 0 0 0 0 0 0 0 0 0 0 0 0 0 0 0 0 0 0 0 0 0 0 0 0 0 0 0 0 0 0 0 0 0 0 0 0
0 0 0 0 0 0 0 0 0 0 0 0 0 0 0 0 0 0 0 0 0 0 0 0 0 0 0 0 0 0 0 0 0 0 0 0 0 0 0 0 0 0 0 0
0 0 0 0 0 0 0 0 0 0 0 0 0 0 0 0 0 0 0 0 0 0 0 0 0 0 0 0 0 0 0 0 0 0 0 0 0 0 0 0 0 0 0 0
0 0 0 0 0 0 0 0 0 0 0 0 0 0 0 0 0 0 0 0 0 0 0 0 0 0 0 0 0 0 0 0 0 0 0 0 0 0 0 0 0 0 0 0
0 0 0 0 0 0 0 0 0 0 0 0 0 0 0 0 0 0 0 0 0 0 0 0 0 0 0 0 0 0 0 0 0 0 0 0 0 0 0 0 0 0 0 0
0 0 0 0 0 0 0 0 0 0 0 0 0 0 0 0 0 0 0 0 0 0 0 0 0 0 0 0 0 0 0 0 0 0 0 0 0 0 0 0 0 0 0 0
0 0 0 0 0 0 0 0 0 0 0 0 0 0 0 0 0 0 0 0 0 0 0 0 0 0 0 0 0 0 0 0 0 0 0 0 0 0 0 0 0 0 0 0
0 0 0 0 0 0 0 0 0 0 0 0 0 0 0 0 0 0 0 0 0 0 0 0 0 0 0 0 0 0 0 0 0 0 0 0 0 0 0 0 0 0 0 0
0 0 0 0 0 0 0 0 0 0 0 0 0 0 0 0 0 0 0 0 0 0 0 0 0 0 0 0 0 0 0 0 0 0 0 0 0 0 0 0 0 0 0 0
0 0 0 0 0 0 0 0 0 0 0 0 0 0 0 0 0 0 0 0 0 0 0 0 0 0 0 0 0 0 0 0 0 0 0 0 0 0 0 0 0 0 0 0
0 0 0 0 0 0 0 0 0 0 0 0 0 0 0 0 0 0 0 0 0 0 0 0 0 0 0 0 0 0 0 0 0 0 0 0 0 0 0 0 0 0 0 0
0 0 0 0 0 0 0 0 0 0 0 0 0 0 0 0 0 0 0 0 0 0 0 0 0 0 0 0 0 0 0 0 0 0 0 0 0 0 0 0 0 0 0 0
0 0 0 0 0 0 0 0 0 0 0 0 0 0 0 0 0 0 0 0 0 0 0 0 0 0 0 0 0 0 0 0 0 0 0 0 0 0 0 0 0 0 0 0
0 0 0 0 0 0 0 0 0 0 0 0 0 0 0 0 0 0 0 0 0 0 0 0 0 0 0 0 0 0 0 0 0 0 0 0 0 0 0 0 0 0 0 0
0 0 0 0 0 0 0 0 0 0 0 0 0 0 0 0 0 0 0 0 0 0 0 0 0 0 0 0 0 0 0 0 0 0 0 0 0 0 0 0 0 0 0 0
0 0 0 0 0 0 0 0 0 0 0 0 0 0 0 0 0 0 0 0 0 0 0 0 0 0 0 0 0 0 0 0 0 0 0 0 0 0 0 0 0 0 0 0
0 0 0 0 0 0 0 0 0 0 0 0 0 0 0 0 0 0 0 0 0 0 0 0 0 0 0 0 0 0 0 0 0 0 0 0 0 0 0 0 0 0 0 0
0 0 0 0 0 0 0 0 0 0 0 0 0 0 0 0 0 0 0 0 0 0 0 0 0 0 0 0 0 0 0 0 0 0 0 0 0 0 0 0 0 0 0 0
0 0 0 0 0 0 0 0 0 0 0 0 0 0 0 0 0 0 0 0 0 0 0 0 0 0 0 0 0 0 0 0 0 0 0 0 0 0 0 0 0 0 0 0
0 0 0 0 0 0 0 0 0 0 0 0 0 0 0 0 0 0 0 0 0 0 0 0 0 0 0 0 0 0 0 0 0 0 0 0 0 0 0 0 0 0 0 0
0 0 0 0 0 0 0 0 0 0 0 0 0 0 0 0 0 0 0 0 0 0 0 0 0 0 0 0 0 0 0 0 0 0 0 0 0 0 0 0 0 0 0 0
0 0 0 0 0 0 0 0 0 0 0 0 0 0 0 0 0 0 0 0 0 0 0 0 0 0 0 0 0 0 0 0 0 0 0 0 0 0 0 0 0 0 0 0
0 0 0 0 0 0 0 0 0 0 0 0 0 0 0 0 0 0 0 0 0 0 0 0 0 0 0 0 0 0 0 0 0 0 0 0 0 0 0 0 0 0 0 0
Wind_Speed
2 2 1 3 6 6 4 4 6 9 10 12 12 13 13 12 12 12 11 11 11 10 9 9 9 9 8 8 8 8 9 9 8 7 7 7 6 6 5 5 6 5 5 5
2 2 4 6 6 6 6 6 9 11 6 9 11 10 12 12 12 12 11 11 11 10 10 9 9 8 8 7 7 7 8 8 7 6 6 6 5 5 5 5 5 5 5 5
1 2 3 5 4 5 6 5 6 5 7 14 13 12 12 12 12 11 12 11 10 9 8 8 7 7 7 6 6 7 6 6 5 5 5 4 4 5 4 3 4 4 4 4
1 4 4 2 2 9 10 6 4 8 13 12 11 9 7 9 11 12 11 10 9 8 7 6 6 6 6 6 6 6 5 5 4 4 4 4 4 4 3 2 3 2 2 2
3 3 2 3 2 4 6 4 4 12 13 12 13 10 6 7 9 11 10 9 8 7 7 6 5 5 6 6 6 5 5 5 4 5 4 4 3 2 1 2 2 2 2 2
4 3 1 2 2 7 10 4 3 10 14 14 10 6 5 8 11 11 10 8 8 7 6 6 5 5 6 6 6 5 5 5 4 4 4 3 2 1 1 2 2 2 2 1
4 3 0 1 4 3 2 7 8 9 12 10 4 5 10 12 10 10 9 9 8 7 6 4 5 6 7 6 5 4 5 4 4 3 3 2 1 1 1 1 2 2 2 1
3 3 3 4 2 2 4 6 10 9 9 8 10 13 13 12 12 11 9 8 8 7 5 4 5 6 6 4 4 4 4 4 3 2 1 2 3 2 3 3 3 2 2 2
4 3 3 1 4 4 7 10 7 8 10 13 14 13 13 11 11 9 9 8 7 7 6 4 4 5 5 3 4 4 4 3 2 2 3 3 3 4 4 4 3 2 2 2
5 3 4 6 7 7 9 9 9 11 13 14 14 14 13 11 9 8 7 7 6 7 6 4 4 4 4 3 4 4 4 2 2 3 3 3 3 3 3 3 3 3 2 2
5 5 7 6 8 11 12 13 14 12 12 12 14 13 11 9 8 7 6 5 6 6 6 5 4 3 3 3 4 4 3 2 2 2 3 3 3 2 3 2 2 3 2 1
8 10 8 7 8 14 14 13 14 15 12 10 11 11 10 9 7 7 6 6 6 6 5 5 4 4 3 3 4 3 1 1 1 2 2 3 3 2 3 2 2 3 3 2
9 10 10 11 12 12 12 13 13 13 12 11 9 10 9 7 6 6 6 6 6 6 6 5 5 4 4 4 4 4 3 2 1 2 3 3 3 3 1 2 3 3 3 3
17 15 13 10 11 12 14 13 12 12 11 10 9 9 8 7 7 7 7 6 6 5 5 5 5 4 4 4 4 3 2 2 2 2 2 3 4 3 3 2 1 2 3 4
13 13 14 14 13 14 14 14 14 11 10 9 9 9 9 8 7 7 6 6 6 5 5 5 5 4 3 4 4 3 2 1 1 1 2 2 3 3 3 3 2 1 2 3
13 15 17 17 17 15 15 14 13 11 10 9 8 9 8 8 7 6 5 6 6 5 5 5 4 4 4 4 4 2 2 3 3 2 2 2 3 3 3 3 2 1 1 2
17 16 18 17 16 15 14 13 12 11 10 10 9 9 8 8 6 6 5 6 6 5 5 5 3 2 3 4 4 3 2 1 2 3 2 3 3 3 3 3 2 2 2 2
15 15 16 18 16 15 14 13 12 11 10 10 10 9 8 8 7 6 6 5 5 4 3 4 4 3 3 3 3 2 2 2 2 3 3 3 3 3 3 3 3 2 2 1
15 15 15 15 15 14 13 12 12 11 10 10 10 9 8 7 7 6 5 5 6 4 3 3 5 3 1 2 3 2 2 2 3 3 3 4 3 3 3 3 2 2 1 0
14 16 15 14 14 14 14 13 12 11 10 10 10 9 7 7 6 6 5 4 5 5 5 4 3 1 1 2 2 1 2 3 4 4 3 3 3 3 2 2 2 2 1 1
16 16 16 15 14 15 14 14 12 11 11 11 10 9 8 6 6 6 5 3 3 4 5 5 3 1 1 1 2 1 2 3 4 4 4 4 3 3 3 2 2 1 1 1
15 14 15 15 14 13 12 12 12 12 11 10 10 8 7 6 6 5 5 5 5 6 4 3 3 3 2 2 1 1 2 4 4 4 4 4 4 4 3 3 2 1 1 1
13 13 14 15 15 13 12 12 12 12 11 10 10 9 8 6 5 5 4 4 4 7 5 3 5 5 3 1 1 1 3 4 5 5 5 4 4 4 3 3 2 2 2 2
12 13 13 13 13 13 12 11 11 10 10 9 8 9 7 5 3 4 4 7 9 8 4 5 7 6 3 1 0 1 3 4 4 4 5 4 4 4 3 3 3 2 3 3
13 12 13 15 14 12 11 11 10 9 9 7 8 8 6 6 5 5 5 7 9 8 4 6 8 5 2 1 1 2 3 4 5 5 5 5 4 4 4 3 4 3 3 4
12 11 12 12 10 9 9 9 8 7 7 6 5 5 5 4 6 6 5 6 8 7 5 4 4 4 2 2 1 3 3 4 5 4 5 5 5 5 4 4 5 4 4 4
11 10 8 8 8 9 9 9 8 8 8 7 6 5 5 6 6 6 7 6 5 5 4 4 4 4 4 3 3 3 3 4 4 4 4 4 5 5 5 5 4 4 4 4
Wind_Direction
231 244 190 64 51 53 75 139 148 151 151 160 153 144 136 131 127 121 116 112 109 105 100 97 95 93 93 94 93 94 93 91 90 89 86 83 80 78 77 81 89 90 82 70
352 57 79 65 57 65 64 81 111 123 118 134 130 127 131 133 132 128 123 118 116 114 112 109 108 107 105 102 100 99 99 99 96 92 89 85 84 80 78 78 80 82 80 76
334 349 56 33 17 80 82 82 124 142 140 137 137 144 145 143 139 133 128 124 122 119 116 115 114 115 114 112 107 103 103 102 99 97 94 93 92 81 78 79 85 91 93 87
103 53 63 280 57 97 89 55 74 111 129 138 134 124 125 136 135 133 131 128 125 120 112 107 109 113 115 115 114 113 110 109 106 101 98 94 87 82 80 91 107 119 116 110
102 92 116 150 147 131 108 69 100 123 125 121 118 107 105 119 125 128 129 127 124 122 120 117 118 119 112 109 111 113 115 115 115 112 106 98 92 87 95 104 113 137 142 136
113 117 167 236 152 129 104 110 152 137 138 141 138 136 144 134 125 123 122 123 123 121 115 115 116 112 109 112 112 119 127 128 126 122 119 119 125 121 114 124 135 137 132 143
104 108 150 319 169 147 128 190 164 150 147 149 150 140 136 133 126 126 124 124 123 119 118 121 117 108 109 115 124 135 129 121 118 121 132 134 110 81 92 92 94 101 107 90
104 116 233 314 93 136 182 134 139 141 143 131 117 118 125 128 129 130 127 126 124 119 115 114 115 113 114 126 139 128 119 116 115 114 111 104 86 57 56 71 78 74 83 60
131 178 231 37 101 113 119 122 124 133 132 128 125 129 129 129 132 132 132 131 127 124 120 116 119 122 127 143 130 119 114 117 118 96 73 85 90 77 62 61 73 70 82 81
90 101 102 92 90 89 106 113 119 127 130 131 129 130 129 132 133 132 132 133 130 128 128 135 137 131 140 142 131 125 124 120 110 98 82 72 80 92 90 80 77 76 82 85
102 127 99 90 108 111 107 110 113 117 122 128 129 130 130 132 134 133 132 128 129 134 142 150 146 145 150 138 124 120 128 136 138 134 130 110 87 83 107 117 152 142 144 145
179 180 145 149 139 126 122 123 127 124 117 122 126 128 128 129 131 132 134 131 133 142 150 159 157 163 168 152 137 134 135 148 171 163 151 139 124 74 50 120 110 119 150 166
144 139 127 132 132 126 125 128 129 128 129 128 125 127 127 127 130 132 135 140 149 157 161 164 168 179 186 174 157 158 170 184 183 172 164 160 158 155 162 328 321 307 289 286
124 120 119 127 131 128 128 125 124 122 125 127 128 128 126 124 131 139 150 161 161 157 158 160 164 184 193 176 166 171 174 180 171 183 171 170 178 179 173 178 266 308 304 290
127 127 130 128 125 126 127 127 127 127 127 127 131 133 133 136 146 157 162 155 147 151 159 159 165 194 194 170 168 176 171 176 167 169 160 158 160 156 163 176 188 232 306 319
123 122 127 131 134 135 135 136 136 137 135 133 137 140 143 146 149 151 150 143 142 156 168 165 177 204 192 170 160 159 185 195 167 151 140 132 131 135 148 160 168 179 233 277
134 141 142 143 144 144 145 144 143 142 140 140 144 144 139 135 135 139 145 150 151 158 161 158 171 175 159 165 163 172 193 209 168 137 144 146 142 145 150 153 161 178 227 248
148 149 151 150 149 148 146 144 144 143 144 147 144 137 135 139 147 156 157 149 136 136 161 168 156 128 121 141 156 161 163 162 153 154 151 146 150 152 147 151 167 181 235 293
141 144 146 146 147 146 147 147 147 146 145 144 142 142 146 151 156 159 155 144 143 155 198 191 151 131 150 180 157 147 146 158 156 154 148 144 138 139 144 151 162 184 206 234
144 146 146 146 145 146 148 149 147 146 146 144 143 144 150 160 161 157 153 161 185 190 191 183 152 135 226 229 167 138 143 159 158 155 146 141 145 150 154 158 159 163 159 143
149 150 149 149 148 149 150 150 149 149 149 148 149 156 163 169 161 148 142 163 218 188 173 172 161 169 179 185 159 136 145 153 157 155 150 150 150 149 150 152 152 152 147 119
152 150 150 148 148 149 151 150 150 151 150 152 155 157 157 160 159 157 168 182 192 176 165 172 181 192 180 150 133 147 157 154 155 153 151 153 153 156 163 166 166 166 152 128
151 150 150 150 150 149 148 151 153 154 156 159 160 161 161 164 160 155 183 206 175 171 164 180 194 192 173 120 111 157 159 157 160 161 162 164 165 167 172 175 173 168 153 140
148 150 149 148 144 147 152 158 155 156 158 160 164 165 160 158 177 193 179 175 174 168 172 187 189 188 168 139 123 170 164 164 165 166 166 165 167 170 174 175 176 171 154 146
148 147 149 150 153 158 159 155 151 154 155 161 169 171 168 165 170 186 174 169 172 166 172 192 199 195 178 206 219 178 173 170 166 164 166 166 172 176 177 176 174 167 160 159
149 153 157 160 158 157 158 157 158 161 159 162 172 176 171 164 160 159 162 169 174 175 179 191 201 199 194 206 193 167 165 161 158 159 164 167 171 171 172 174 171 168 169 174
145 146 148 150 155 157 158 160 162 166 166 166 171 177 169 161 160 166 169 173 178 186 194 198 200 198 196 201 203 194 183 174 169 166 164 164 166 170 175 173 173 173 175 179